Powrót do katalogu

CAPELLA-16

ACADIA

AktywnyNaukaSSO
NORAD 65318·PAYLOAD·🇺🇸 United States

Wystrzelony Aug 26, 2025 z Vandenberg Space Force Base

Loading…

Następne Przeloty (najbliższe 24 godziny)

TLE

ŚwieżeSource: Space-Track

Epoka: Sep 14, 2026, 14:58 UTC

1 65318U 25188D   26257.62384967  .00005162  00000-0  48179-3 0  9990
2 65318  97.7319 331.4487 0002605 310.0899  50.0092 14.94618057 57276

Śledź CAPELLA-16 w czasie rzeczywistym z AllMySat

Download on the App Store